Location: Newark
(45.8667°N, 9.7333°E)
Time: 00:52:03
(UTC+00:00)

Transit 4A - Pass Details

Date: 25 January 2020
Orbit: 872 x 973 km, 66.8° (Epoch: 19 February)

Event Time Altitude Azimuth Distance (km) Brightness Sun altitude
Rises 13:17:19 0° 330° (NNW) 3,476 10.6 21.0°
Reaches altitude 10° 13:20:05 10° 340° (NNW) 2,531 9.9 20.8°
Maximum altitude 13:25:17 32° 44° (NE) 1,448 8.6 20.3°
Drops below altitude 10° 13:30:29 10° 107° (ESE) 2,531 10.1 19.9°
Sets 13:33:15 0° 117° (ESE) 3,477 10.9 19.7°
